Terminal Aerodrome Forecast
Issued by NWS Charleston, WV

Current Version | Previous Version | Text Only | Print | Product List | Glossary Off
Versions: 1 2 3 4 5 6 7 8 9 10 11 12 13 14 15 16 17 18 19

748
FTUS41 KRLX 071720
TAFBKW
TAF
KBKW 071720Z 0718/0818 32006KT P6SM SCT250
     FM080900 20005KT P6SM BKN040
     FM081400 21006KT 3SM -SHSNRA OVC020=

USA.gov is the U.S. government's official web portal to all federal, state and local government web resources and services.